Lid_Strength_Index
3 3 3 3 3 3 3 3 2 2 2 2 2 2 2 3 4 5 9 5 1 -0 -0 1 2 2 3 5 4 4 11 13 11 11 10 7 8 5 4 6 5 5 5 4 2
3 3 3 3 3 3 3 3 3 3 3 3 3 2 2 3 7 8 2 -1 -1 -1 2 3 5 4 6 6 6 8 12 11 7 8 8 7 7 6 7 7 7 6 4 3 3
3 3 3 3 3 3 3 3 3 3 3 3 3 2 2 3 10 10 -2 -1 -1 -0 1 2 3 4 7 6 7 7 11 8 7 6 6 7 7 5 7 9 7 7 6 4 4
4 3 3 3 3 3 3 3 3 3 3 3 3 2 1 5 13 3 -1 -1 -1 -0 1 4 5 7 7 9 6 9 7 7 6 6 6 7 6 7 7 7 5 5 4 4 4
4 4 4 4 4 3 3 3 3 3 3 3 2 2 5 11 11 2 -1 -1 0 1 4 4 6 6 9 7 7 8 7 6 6 6 6 6 7 7 7 5 4 4 4 5 4
4 4 4 4 4 4 4 3 4 3 3 3 2 1 7 14 8 0 0 1 1 2 3 3 5 4 6 7 8 6 7 6 6 6 6 7 7 7 6 5 5 5 5 4 4
4 4 4 4 4 4 4 4 4 4 3 2 2 2 9 11 6 0 1 2 2 2 4 2 3 5 5 8 5 6 8 7 7 6 7 6 9 8 6 5 6 6 5 5 4
4 4 4 4 4 4 4 4 4 3 3 2 1 4 11 8 4 1 1 5 3 2 3 3 3 5 6 6 7 9 9 12 8 7 6 7 12 7 5 6 7 6 6 5 4
4 4 4 4 4 4 5 5 4 2 2 1 5 8 12 3 7 4 2 5 3 3 3 2 4 6 6 9 11 10 14 12 10 7 7 8 11 7 5 6 7 6 6 5 5
4 4 4 4 5 5 5 5 4 2 1 1 2 8 9 8 7 7 4 3 4 4 5 5 7 9 9 11 15 14 14 12 12 10 9 10 10 8 6 6 7 6 6 6 5
4 4 5 5 5 6 7 8 9 9 6 10 11 9 7 5 5 9 4 4 4 6 9 7 11 12 10 9 9 10 11 12 10 9 10 11 10 9 7 7 7 7 6 6 6
4 5 5 5 5 6 8 9 9 8 11 7 7 7 7 6 7 8 4 7 7 9 8 10 12 9 8 8 9 10 12 12 10 9 10 10 11 9 8 7 7 7 7 6 5
5 5 5 5 6 8 10 9 8 9 11 8 8 7 7 6 8 9 7 9 9 9 9 11 9 7 9 10 10 11 12 12 12 10 9 11 12 11 8 7 6 6 5 5 6
5 5 5 6 9 10 9 8 8 9 13 11 10 7 6 6 9 5 8 9 10 10 9 10 8 8 10 10 10 13 10 10 11 12 16 11 17 12 10 9 8 7 6 6 5
5 5 6 6 11 10 9 8 9 8 17 9 10 6 8 8 9 9 8 9 10 10 9 10 9 10 11 10 9 12 9 11 12 14 14 14 16 13 10 11 9 7 7 6 5
5 6 6 8 10 8 8 9 8 13 16 10 9 9 10 11 11 10 9 8 8 8 11 9 7 8 9 8 8 8 10 11 12 14 18 15 15 15 12 10 9 7 6 6 5
6 6 8 7 10 9 9 9 14 16 10 11 12 11 12 12 11 12 11 12 12 13 14 13 11 8 8 11 9 10 13 18 19 19 20 15 16 14 10 8 8 8 7 6 5
7 8 7 7 9 9 9 11 16 11 13 11 12 13 12 11 12 12 12 13 13 11 13 14 14 11 8 10 12 12 13 18 22 21 19 15 18 13 8 7 6 6 6 5 5
7 10 10 8 7 9 10 15 14 12 11 12 12 14 14 13 12 13 13 13 12 11 12 14 14 8 8 8 9 12 15 11 16 17 19 16 14 10 8 8 7 7 6 6 6
12 11 9 7 8 11 12 15 14 11 11 12 14 13 15 14 14 14 13 12 12 10 11 12 13 11 9 8 8 11 9 15 15 21 21 18 16 15 11 10 8 8 7 6 5
11 10 8 8 10 13 16 17 13 11 10 12 14 13 14 13 13 14 13 12 9 11 11 12 11 13 10 11 13 12 14 13 13 16 18 20 16 10 10 9 9 7 7 6 5
13 11 8 10 13 17 16 15 11 11 11 12 12 13 13 13 14 14 13 11 8 10 12 11 11 15 13 9 8 10 12 13 16 17 16 17 16 9 8 8 7 7 6 5 5
13 13 9 10 15 16 15 13 12 12 13 12 13 12 12 13 14 12 10 8 8 8 11 11 14 15 15 12 10 12 11 12 13 14 17 18 15 8 8 8 7 7 6 6 5
13 14 12 13 15 15 16 16 15 11 12 12 13 13 12 13 13 13 12 9 9 7 5 6 15 12 14 13 11 13 12 11 12 16 16 15 13 10 9 8 8 6 6 6 5
14 16 14 16 15 16 16 15 14 15 13 13 13 13 14 16 15 15 13 12 9 7 9 12 15 15 13 11 10 11 11 11 13 12 14 13 13 10 8 8 8 6 6 6 6
14 14 14 16 16 16 15 17 15 14 14 15 14 13 13 15 16 16 14 14 13 10 11 12 15 15 15 13 10 12 11 11 11 11 11 11 11 8 7 7 7 7 6 6 6
12 12 13 15 16 17 16 15 13 13 13 12 12 13 14 13 11 12 13 13 13 13 13 13 15 15 15 13 12 15 11 11 10 10 10 13 10 8 7 7 8 7 6 6 5